Regional Weather Roundup
Issued by NWS Portland, ME

Current Version | Previous Version | Text Only | Print | Product List | Glossary On
Versions: 1 2 3 4 5 6 7 8 9 10 11 12 13 14 15 16 17 18 19 20 21 22 23 24 25 26 27 28 29 30 31 32 33 34 35 36 37 38 39 40 41 42 43 44 45 46 47 48 49 50
000 ASUS41 KGYX 271110 RWRGYX WEATHER ROUNDUP FOR MAINE AND NEW HAMPSHIRE NATIONAL WEATHER SERVICE GRAY ME 700 AM EDT MON JUN 27 2016 MEZ002-005-006-010-012-015-018-020-021-024-026-027-029-271200- MAINE CITY SKY/WX TMP DP RH WIND PRES REMARKS PORTLAND MOSUNNY 64 58 80 S7 30.06S SANFORD SUNNY 64 55 72 S5 30.07S BAR HARBOR SUNNY 62 57 83 S13 30.07F WISCASSET SUNNY 65 57 75 SW6 30.07F ROCKLAND SUNNY 64 58 80 SW7 30.07S FRYEBURG SUNNY 60 57 89 CALM 30.06R LEWISTONAUBURN SUNNY 60 57 89 S5 30.06S AUGUSTA SUNNY 60 56 86 VRB5 30.06S WATERVILLE SUNNY 59 56 89 SW7 30.03S BANGOR MOSUNNY 64 57 78 S6 30.05S GREENVILLE N/A 60 47 61 CALM 30.02S MILLINOCKET MOSUNNY 61 52 72 VRB6 30.03S HOULTON SUNNY 64 51 62 SW8 30.00S PRESQUE ISLE SUNNY 62 54 74 SE7 29.99S FRENCHVILLE MOSUNNY 65 54 67 SE9 29.96S CARIBOU SUNNY 65 54 67 S9 29.97S $$ NHZ002-005-008-009-011-012-014-271200- NEW HAMPSHIRE CITY SKY/WX TMP DP RH WIND PRES REMARKS PORTSMOUTH MOSUNNY 66 54 65 S5 30.05F ROCHESTER SUNNY 64 57 78 S5 30.06S NASHUA SUNNY 67 55 65 VRB3 30.08S MANCHESTER MOSUNNY 67 54 63 S8 30.06S CONCORD SUNNY 66 59 78 SE6 30.07R LACONIA SUNNY 68 61 78 W3 30.06S PLYMOUTH FAIR 60 59 97 CALM 30.06S BERLIN SUNNY 59 54 83 CALM 30.05S WHITEFIELD SUNNY 62 56 80 CALM 30.04S JAFFREY SUNNY 63 52 67 S5 30.11S KEENE SUNNY 63 57 82 S3 30.10S LEBANON SUNNY 68 60 75 S7 30.04S MT WASHINGTON MOSUNNY 52 48 87 SW32 N/A $$ VTZ005-007-008-271200- VERMONT CITY SKY/WX TMP DP RH WIND PRES REMARKS ST JOHNSBURY N/A 70 60 70 MISG 30.00S MONTPELIER FAIR 69 59 70 S10 30.05F BURLINGTON PTSUNNY 74 57 55 S16G29 29.95S $$ MAZ007-012-024-CTZ003-RIZ002-NYZ038-NYZ072-271200- SOUTHERN NEW ENGLAND AND NY CITY SKY/WX TMP DP RH WIND PRES REMARKS BOSTON MOSUNNY 67 56 67 SW14 30.10F WORCESTER SUNNY 62 52 69 SW10 30.12S NANTUCKET SUNNY 63 59 87 S10 30.17S PROVIDENCE MOSUNNY 65 60 84 S10 30.14R HARTFORD MOSUNNY 65 58 78 S6 30.10S ALBANY MOSUNNY 69 56 62 S10 30.04R NEW YORK CITY MOSUNNY 70 58 65 SW12 30.11S $$ ANZ081-ANZ082-ANZ150-NHZ014-MEZ023>029-271200- COASTAL MARINE OBSERVATIONS STATION/POSITION TIME TEMP WIND PRES WAVE AIR SEA DIR/SP/G HT/PER (UTC) (F) (DEG/KT/KT) (MB) (FT/S) MOUNT DESERT ROC 1100 58 180/ 15/ 16 1019.0F MATINICUS ROCK 1100 60 200/ 16/ 17 1018.2S ISLE OF SHOALS 1100 62 190/ 16/ 17 1018.3S JEFFREYS LEDGE 1008 62 N/A 4/ 5 CASHES LEDGE BUO 1050 63 61 190/ 14/ 16 1019.1R 4/ 8 GEORGES BANK BUO 1050 60 58 1023.0R 3/ 8 $$ .............KEY.............. WCI - WIND CHILL TC - TEMPERATURE IN CELSIUS VSB - VISIBILITY IN MILES HX - HEAT INDEX FAIR- INDICATES FEW OR NO CLOUDS BELOW 12,000 FT, WITH NO SIGNIFICANT WEATHER AND/OR OBSTRUCTIONS TO VISIBILITY.

USA.gov is the U.S. government's official web portal to all federal, state and local government web resources and services.